Regional Weather Roundup
Issued by NWS

Home | Current Version | Previous Version | Text Only | Print | Product List | Glossary On
Versions: 1 2 3 4 5 6 7 8 9 10 11 12 13 14 15 16 17 18 19 20 21 22 23 24 25 26 27 28 29 30 31 32 33 34 35 36 37 38 39 40 41 42 43 44 45 46 47 48 49 50
000
ASUS43 KDTX 171410
RWRMI
MICHIGAN HOURLY REGIONAL WEATHER ROUNDUP
NATIONAL WEATHER SERVICE DETROIT/PONTIAC MI
ISSUED BY NATIONAL WEATHER SERVICE GRAND RAPIDS MI
900 AM EST TUE JAN 17 2017

NOTE: "FAIR" INDICATES FEW OR NO CLOUDS BELOW 12,000 FEET WITH NO
SIGNIFICANT WEATHER AND/OR OBSTRUCTION TO VISIBILITY.

MIZ047>049-052>055-059>063-066>070-074>076-081>083-171500-
SOUTHEAST LOWER MICHIGAN

CITY           SKY/WX    TMP DP  RH WIND       PRES   REMARKS
ADRIAN         LGT RAIN  35  35 100 CALM      29.77F VSB 3/4
ALMA           CLOUDY    33  33  98 NE7       29.80S FOG     WCI  27
ANN ARBOR      FOG       34  34 100 CALM      29.77F VSB 1
BAD AXE        LGT SNOW  34  33  97 E10G18    29.84F WCI  26
DETROIT        LGT RAIN  35  35 100 E5        29.80F VSB 1/8 WCI  31
FLINT          CLOUDY    35  35 100 E6        29.77F FOG     WCI  30
GROSSE ILE     FOG       36  36  99 N3        29.78F VSB 1/4
HILLSDALE      DRZL/FOG  37  37 100 SE6       29.74S VSB<1/4 WCI  33
HOWELL         CLOUDY    35  34  96 SE7       29.75F FOG     WCI  29

CITY           SKY/WX    TMP DP  RH WIND       PRES   REMARKS
JACKSON        FOG       36  36 100 E6        29.75S VSB 1/2 WCI  31
LANSING        CLOUDY    36  34  92 NE6       29.77R FOG     WCI  31
MASON          FOG       36  36 100 CALM      29.76S VSB 1/2
MONROE         SNOW      36  36 100 CALM      29.78F VSB 1/2
MT. CLEMENS    LGT RAIN  34  34 100 E3        29.79F VSB 3/4
PONTIAC        FOG       33  31  92 E7        29.76F VSB 1   WCI  27
PORT HOPE        N/A     34  34 100 E14       29.85F WCI  25
PORT HURON     RAIN      36  36 100 CALM      29.83F
TRI CITIES     LGT RAIN  33  33 100 NE10      29.81F FOG     WCI  25
YPSILANTI      LGT RAIN  35  35 100 E12       29.76F VSB 1   WCI  27
$$
MIZ043>046-050>051-056>058-064>065-071>073-077>080-171500-
SOUTHWEST LOWER MICHIGAN

CITY           SKY/WX    TMP DP  RH WIND       PRES   REMARKS
BATTLE CREEK   CLOUDY    40  40 100 S6        29.74F FOG
BENTON HARBOR  FOG       41  39  93 SW16      29.77R VSB 1/2
BIG RAPIDS     MIX PCPN  33  31  94 E6        29.79R WCI  27
COLDWATER      FOG       43  43 100 CALM      29.74S VSB 3/4
HOLLAND        CLOUDY    36  35  96 E9        29.74R FOG     WCI  29
GRAND RAPIDS   LGT RAIN  34  33  96 E9        29.76R VSB 1   WCI  27
KALAMAZOO      LGT RAIN  42  40  92 SW5       29.75R VSB 1/4
MARSHALL       FOG       38  38  97 SE3       29.75S VSB 3/4
MOUNT PLEASANT MIX PCPN  32  32  99 NE8       29.80F WCI  25
MUSKEGON       LGT RAIN  36  35  96 E7        29.75F FOG     WCI  30
STURGIS        CLOUDY    47  47 100 SW9       29.74S FOG
$$
MIZ016>042-171500-
NORTHERN LOWER MICHIGAN

CITY           SKY/WX    TMP DP  RH WIND       PRES   REMARKS
ALPENA         LGT RAIN  33  30  88 NE13      29.93F FOG     WCI  24
BEAVER ISLAND  LGT SNOW  32  32 100 E13G21    29.91F WCI  22
BELLAIRE       CLOUDY    37  34  90 NE3       29.86S
CADILLAC       CLOUDY    33  32  98 E10       29.78S FOG     WCI  24
CHARLEVOIX     CLOUDY    32  32 100 NE7       29.90F WCI  26
GAYLORD        CLOUDY    35  30  82 E7        29.85S WCI  29
HOUGHTON LAKE  LGT RAIN  33  32  96 E12       29.82F WCI  24
MANISTEE       CLOUDY    35  34  96 CALM      29.80R
OSCODA         MIX PCPN  35  34  96 NE12      29.88F WCI  27
PELLSTON       CLOUDY    33  29  85 E12       29.92F WCI  24
TRAVERSE CITY  LGT RAIN  36  34  92 NE8       29.82F WCI  30
LUDINGTON      CLOUDY    34  34  99 E7        29.78S WCI  28
$$
MIZ007>008-015-171500-
EASTERN UPPER MICHIGAN

CITY           SKY/WX    TMP DP  RH WIND       PRES   REMARKS
KINROSS        CLOUDY    28  26  92 E10       29.97S WCI  19
MACKINAC ISLAN CLOUDY    32  32 100 E15G23    29.94F FOG     WCI  22
NEWBERRY       CLOUDY    25  25  97 NE5       29.94F WCI  20
S. S. MARIE    PTCLDY    29  23  78 E6        29.98F WCI  23
$$
MIZ004>006-011>014-085-171500-
CENTRAL UPPER MICHIGAN

CITY           SKY/WX    TMP DP  RH WIND       PRES   REMARKS
MANISTIQUE     CLOUDY    30  29  98 NE7       29.93S FOG     WCI  23
ESCANABA       LGT SNOW  30  28  92 N8        29.90F FOG     WCI  22
SAWYER-GWINN   CLOUDY    27  23  86 NE5       29.92F WCI  21
$$
MIZ001>003-009>011-084-171500-
WESTERN UPPER MICHIGAN

CITY           SKY/WX    TMP DP  RH WIND       PRES   REMARKS
IRON MOUNTAIN  CLOUDY    28  20  71 N8        29.89S WCI  20
HOUGHTON       PTCLDY    30  27  88 E7        29.91F FOG     WCI  23
COPPER HARBOR    N/A     28  26  92 CALM      29.94F
IRONWOOD       CLOUDY    20  17  88 NW3       29.92S
$$

ABBREVIATIONS USED IN REMARKS
   TC - TEMPERATURE IN CELSIUS
  WCI - WIND CHILL INDEX
   HX - HEAT INDEX
  VSB - VISIBILITY





USA.gov is the U.S. government's official web portal to all federal, state and local government web resources and services.